Location: Brivio
(45.7333°N, 9.4500°E)
Time: 03:10:02
(UTC+00:00)

N. Korean satellite - Pass Details

Date: 11 December 2019
Orbit: 454 x 507 km, 97.2° (Epoch: 23 January)

Event Time Altitude Azimuth Distance (km) Brightness Sun altitude
Rises 06:08:07 0° 359° (N) 2,551 10.0 -7.6°
Reaches altitude 10° 06:10:29 10° 345° (NNW) 1,656 8.9 -7.2°
Maximum altitude 06:13:18 22° 292° (WNW) 1,067 7.7 -6.8°
Drops below altitude 10° 06:16:04 10° 240° (WSW) 1,622 8.9 -6.4°
Sets 06:18:22 0° 225° (SW) 2,484 10.0 -6.0°
